EW8824 Weather Reports


Display with metric or nautical units.
time (UTC)temp
F
wind
direction
speed
MPH
gust
MPH
rain 1hr
in
rain 24hr
in
rain mn
in
humidity
%
barometer
mb
20260504025701 57 165 3.0 9.0 0.00 0.00 0.00 63 1012.5
20260504025203 58 155 4.0 10.0 0.00 0.00 0.00 63 1012.5
20260504025035 58 229 6.0 10.0 0.00 0.00 0.00 64 1012.6
20260504024203 57 171 4.0 8.0 0.00 0.00 0.00 63 1012.8
20260504023914 57 166 3.0 8.0 0.00 0.00 0.00 63 1012.7
20260504023820 57 146 3.0 8.0 0.00 0.00 0.00 63 1012.8
20260504022702 57 156 4.0 9.0 0.00 0.00 0.00 62 1012.8
20260504022204 57 160 3.0 9.0 0.00 0.00 0.00 63 1012.9
20260504021702 57 171 4.0 9.0 0.00 0.00 0.00 63 1012.8
20260504021203 57 172 2.0 7.0 0.00 0.00 0.00 64 1012.9
20260504020911 56 167 2.0 5.0 0.00 0.00 0.00 65 1012.9
20260504020819 57 164 5.0 7.0 0.00 0.00 0.00 63 1012.8
20260504015904 56 167 2.0 4.0 0.00 0.00 0.00 66 1013.0
20260504015818 56 167 2.0 5.0 0.00 0.00 0.00 66 1012.9
20260504014703 56 167 1.0 5.0 0.00 0.00 0.00 65 1013.0
20260504014202 56 167 2.0 5.0 0.00 0.00 0.00 66 1013.0
20260504013700 55 148 2.0 5.0 0.00 0.00 0.00 66 1013.0
20260504013200 55 169 0.0 4.0 0.00 0.00 0.00 65 1013.0
20260504012700 55 169 1.0 4.0 0.00 0.00 0.00 64 1012.9
20260504012201 56 175 0.0 3.0 0.00 0.00 0.00 63 1012.9
20260504011704 56 175 0.0 3.0 0.00 0.00 0.00 63 1012.9
20260504011203 56 186 0.0 2.0 0.00 0.00 0.00 61 1012.8
20260504010702 57 186 0.0 2.0 0.00 0.00 0.00 61 1012.9
20260504010201 58 199 0.0 2.0 0.00 0.00 0.00 59 1013.1
20260504010034 58 199 0.0 2.0 0.00 0.00 0.00 58 1013.0
20260504005205 59 199 0.0 2.0 0.00 0.00 0.00 58 1013.0
20260504004703 59 199 0.0 1.0 0.00 0.00 0.00 57 1013.2
20260504004202 60 199 0.0 2.0 0.00 0.00 0.00 55 1013.2
20260504003856 60 205 3.0 5.0 0.00 0.00 0.00 54 1013.2
20260504003815 60 199 0.0 5.0 0.00 0.00 0.00 56 1013.2
20260504003041 60 204 2.0 6.0 0.00 0.00 0.00 52 1013.3
20260504002202 61 217 2.0 6.0 0.00 0.00 0.00 53 1013.2
20260504001704 61 197 4.0 6.0 0.00 0.00 0.00 51 1013.1
20260504001204 61 213 3.0 6.0 0.00 0.00 0.00 51 1013.1
20260504000701 62 225 2.0 9.0 0.00 0.00 0.00 51 1012.8
20260504000538 62 211 4.0 9.0 0.00 0.00 0.00 50 1012.7
20260503235703 62 223 2.0 11.0 0.00 0.00 0.00 50 1012.7
20260503235201 62 187 5.0 15.0 0.00 0.00 0.00 50 1012.7
20260503234702 63 180 8.0 15.0 0.00 0.00 0.00 48 1012.6
20260503234201 63 186 8.0 15.0 0.00 0.00 0.00 49 1012.4
20260503233701 63 228 7.0 14.0 0.00 0.00 0.00 48 1012.5
20260503233200 63 169 5.0 12.0 0.00 0.00 0.00 47 1012.6
20260503232701 63 155 4.0 15.0 0.00 0.00 0.00 49 1012.6
20260503232201 64 171 9.0 16.0 0.00 0.00 0.00 47 1012.4
20260503231705 64 217 8.0 16.0 0.00 0.00 0.00 46 1012.5
20260503231205 64 248 5.0 17.0 0.00 0.00 0.00 48 1012.7
20260503230702 64 183 8.0 17.0 0.00 0.00 0.00 47 1012.7
20260503230204 64 167 8.0 17.0 0.00 0.00 0.00 47 1012.8
20260503225920 65 214 6.0 16.0 0.00 0.00 0.00 47 1012.8
20260503225821 64 206 9.0 17.0 0.00 0.00 0.00 47 1012.8
20260503224703 65 238 7.0 18.0 0.00 0.00 0.00 46 1013.0
20260503224205 65 194 8.0 18.0 0.00 0.00 0.00 47 1013.1
20260503223701 65 156 5.0 17.0 0.00 0.00 0.00 48 1013.2
20260503223538 65 202 8.0 17.0 0.00 0.00 0.00 46 1013.2
20260503222705 65 219 8.0 21.0 0.00 0.00 0.00 46 1013.3
20260503222202 65 167 9.0 21.0 0.00 0.00 0.00 46 1013.4
20260503221702 65 208 7.0 14.0 0.00 0.00 0.00 46 1013.5
20260503221203 65 182 6.0 17.0 0.00 0.00 0.00 47 1013.6
20260503220704 65 182 7.0 17.0 0.00 0.00 0.00 45 1013.6
20260503220206 65 184 7.0 17.0 0.00 0.00 0.00 46 1013.6
20260503220037 65 189 9.0 15.0 0.00 0.00 0.00 46 1013.7
20260503215205 65 257 8.0 15.0 0.00 0.00 0.00 45 1013.9
20260503214703 65 167 6.0 16.0 0.00 0.00 0.00 45 1014.0
20260503214533 65 186 7.0 17.0 0.00 0.00 0.00 46 1014.1
20260503213704 65 161 7.0 18.0 0.00 0.00 0.00 45 1014.2
20260503213203 66 243 10.0 19.0 0.00 0.00 0.00 44 1014.3
20260503212702 65 140 7.0 19.0 0.00 0.00 0.00 45 1014.3
20260503212204 66 198 7.0 16.0 0.00 0.00 0.00 42 1014.5
20260503211703 65 197 6.0 11.0 0.00 0.00 0.00 47 1014.7
20260503211202 65 231 5.0 15.0 0.00 0.00 0.00 46 1014.8
20260503210705 65 187 8.0 16.0 0.00 0.00 0.00 47 1014.9
20260503210203 65 185 10.0 16.0 0.00 0.00 0.00 45 1015.2
20260503205701 65 181 7.0 20.0 0.00 0.00 0.00 46 1015.2
20260503205203 65 183 8.0 21.0 0.00 0.00 0.00 46 1015.4
20260503205034 65 220 13.0 21.0 0.00 0.00 0.00 45 1015.6
20260503204203 65 172 9.0 22.0 0.00 0.00 0.00 46 1015.4
20260503204036 65 202 11.0 22.0 0.00 0.00 0.00 46 1015.7
20260503203526 65 257 11.0 20.0 0.00 0.00 0.00 45 1015.6
20260503203521 65 172 9.0 20.0 0.00 0.00 0.00 45 1015.2
20260503203401 65 199 11.0 18.0 0.00 0.00 0.00 45 1015.4
20260503202735 65 198 7.0 18.0 0.00 0.00 0.00 44 1015.3
20260503201202 65 158 5.0 22.0 0.00 0.00 0.00 44 1015.9
20260503201037 65 265 7.0 22.0 0.00 0.00 0.00 46 1015.9
20260503200203 65 168 5.0 17.0 0.00 0.00 0.00 46 1015.9
20260503195702 64 148 10.0 21.0 0.00 0.00 0.00 45 1015.9
20260503195205 64 154 13.0 21.0 0.00 0.00 0.00 45 1015.9
20260503195039 64 173 8.0 17.0 0.00 0.00 0.00 46 1016.1
20260503194204 64 176 10.0 17.0 0.00 0.00 0.00 44 1016.2
20260503193702 64 204 9.0 17.0 0.00 0.00 0.00 47 1016.4
20260503193206 64 224 7.0 24.0 0.00 0.00 0.00 46 1016.7
20260503192702 63 219 13.0 24.0 0.00 0.00 0.00 45 1016.7
20260503192202 64 227 8.0 23.0 0.00 0.00 0.00 47 1016.9
20260503191703 64 245 8.0 17.0 0.00 0.00 0.00 47 1016.9
20260503191204 64 211 9.0 17.0 0.00 0.00 0.00 46 1017.3
20260503191040 64 163 7.0 15.0 0.00 0.00 0.00 49 1017.1
20260503190203 64 215 8.0 21.0 0.00 0.00 0.00 44 1017.3
20260503190046 64 182 6.0 21.0 0.00 0.00 0.00 53 1017.6
20260503185202 63 236 7.0 12.0 0.00 0.00 0.00 45 1017.5
20260503185040 63 224 7.0 14.0 0.00 0.00 0.00 45 1017.6
20260503184546 63 200 8.0 15.0 0.00 0.00 0.00 47 1017.8
20260503183703 63 208 9.0 15.0 0.00 0.00 0.00 46 1017.9
20260503183204 63 163 6.0 15.0 0.00 0.00 0.00 45 1018.0
20260503182704 63 166 8.0 19.0 0.00 0.00 0.00 49 1018.1
20260503182203 63 249 8.0 19.0 0.00 0.00 0.00 45 1018.3
20260503182044 64 167 7.0 14.0 0.00 0.00 0.00 51 1018.3
20260503181202 63 231 7.0 13.0 0.00 0.00 0.00 50 1018.3
20260503180701 63 152 8.0 18.0 0.00 0.00 0.00 46 1018.3
20260503180200 62 144 6.0 18.0 0.00 0.00 0.00 47 1018.6
20260503180046 62 169 7.0 18.0 0.00 0.00 0.00 46 1018.4
20260503175203 62 115 12.0 18.0 0.00 0.00 0.00 45 1018.6
20260503174702 62 226 7.0 16.0 0.00 0.00 0.00 49 1018.6
20260503174201 62 169 10.0 16.0 0.00 0.00 0.00 49 1018.8
20260503173701 62 224 6.0 14.0 0.00 0.00 0.00 46 1019.0
20260503173201 62 187 8.0 15.0 0.00 0.00 0.00 47 1018.9
20260503172702 62 213 6.0 15.0 0.00 0.00 0.00 51 1018.9
20260503172201 61 139 7.0 14.0 0.00 0.00 0.00 45 1018.9
20260503172042 61 217 9.0 17.0 0.00 0.00 0.00 47 1019.0
20260503171543 61 201 6.0 17.0 0.00 0.00 0.00 47 1019.1
20260503170703 61 201 10.0 17.0 0.00 0.00 0.00 49 1019.0
20260503170202 61 203 9.0 17.0 0.00 0.00 0.00 47 1019.1
20260503160204 59 176 8.0 12.0 0.00 0.00 0.00 46 1019.8
20260503150701 58 237 7.0 14.0 0.00 0.00 0.00 54 1020.3
20260503150201 57 160 6.0 10.0 0.00 0.00 0.00 52 1020.4
20260503140201 54 210 5.0 9.0 0.00 0.00 0.00 59 1020.3
20260503131203 47 163 1.0 5.0 0.00 0.00 0.00 81 1020.4
20260503130701 46 246 3.0 5.0 0.00 0.00 0.00 84 1020.4
20260503130203 45 157 2.0 5.0 0.00 0.00 0.00 92 1020.2
20260503120203 32 344 0.0 0.0 0.00 0.01 0.00 94 1020.1
20260503110202 30 344 0.0 0.0 0.00 0.01 0.00 92 1019.4
20260503100202 31 344 0.0 0.0 0.00 0.01 0.00 91 1019.1
20260503090308 31 344 0.0 0.0 0.00 0.01 0.00 91 1019.3
20260503081204 32 344 0.0 0.0 0.00 0.01 0.00 91 1019.4
20260503080704 32 344 0.0 0.0 0.00 0.01 0.00 90 1019.4
20260503080201 32 344 0.0 0.0 0.00 0.01 0.00 90 1019.3
20260503072704 32 344 0.0 0.0 0.00 0.01 0.00 91 1019.2
20260503072204 32 344 0.0 0.0 0.00 0.01 0.00 90 1019.1
20260503071858 33 344 0.0 0.0 0.00 0.01 0.00 91 1019.1
20260503071815 32 344 0.0 0.0 0.00 0.01 0.00 90 1019.1
20260503070704 33 344 0.0 0.0 0.00 0.01 0.00 91 1019.1
20260503070201 33 344 0.0 0.0 0.00 0.01 0.00 90 1019.2
20260503060131 34 344 0.0 0.0 0.00 0.01 0.00 89 1019.6
20260503055017 34 344 0.0 0.0 0.00 0.01 0.00 90 1019.5
20260503054129 34 344 0.0 0.0 0.00 0.01 0.00 89 1019.5
20260503053630 34 344 0.0 0.0 0.00 0.01 0.00 89 1019.6
20260503053545 34 344 0.0 0.0 0.00 0.01 0.00 89 1019.6
20260503053537 34 344 0.0 0.0 0.00 0.01 0.00 89 1019.5
20260503053532 34 344 0.0 0.0 0.00 0.01 0.00 89 1019.6
20260503051630 34 344 0.0 0.0 0.00 0.01 0.00 89 1019.5
20260503051133 35 344 0.0 0.0 0.00 0.01 0.00 89 1019.6
20260503050631 35 344 0.0 0.0 0.00 0.01 0.00 89 1019.5
20260503050131 35 344 0.0 0.0 0.00 0.01 0.00 88 1019.7
20260503045629 35 344 0.0 0.0 0.00 0.01 0.00 88 1019.6
20260503045449 35 344 0.0 0.0 0.00 0.01 0.00 88 1019.5
20260503044629 35 344 0.0 0.0 0.00 0.01 0.00 88 1019.6
20260503044129 35 344 0.0 0.0 0.00 0.01 0.00 88 1019.4
20260503043630 35 344 0.0 0.0 0.00 0.01 0.00 88 1019.4
20260503043456 35 344 0.0 0.0 0.00 0.01 0.00 87 1019.4
20260503042630 36 344 0.0 0.0 0.00 0.01 0.00 87 1019.3
20260503042129 36 344 0.0 0.0 0.00 0.01 0.00 87 1019.3
20260503041631 36 344 0.0 0.0 0.00 0.01 0.00 87 1019.3
20260503041457 36 344 0.0 0.0 0.00 0.01 0.00 87 1019.3
20260503040630 36 344 0.0 0.0 0.00 0.01 0.00 87 1019.3
20260503040453 36 344 0.0 0.0 0.00 0.01 0.00 87 1019.2
20260503035635 37 344 0.0 0.0 0.00 0.01 0.01 86 1019.2
20260503035135 37 344 0.0 0.0 0.00 0.01 0.01 86 1019.1
20260503034954 37 344 0.0 0.0 0.00 0.01 0.01 86 1019.2
20260503034446 37 344 0.0 0.0 0.00 0.01 0.01 86 1019.3
20260503033630 37 344 0.0 0.0 0.00 0.01 0.01 85 1019.4
20260503033317 38 344 0.0 0.0 0.00 0.01 0.01 85 1019.4
20260503033234 37 344 0.0 0.0 0.00 0.01 0.01 85 1019.3
20260503032129 38 344 0.0 0.0 0.00 0.01 0.01 84 1019.5
20260503031955 38 344 0.0 0.0 0.00 0.01 0.01 84 1019.5
20260503031129 38 344 0.0 0.0 0.00 0.01 0.01 84 1019.5
20260503030630 38 344 0.0 0.0 0.00 0.01 0.01 84 1019.4
20260503030130 38 344 0.0 0.0 0.00 0.01 0.01 84 1019.5